Time,TemperatureF,DewpointF,PressureIn,WindDirection,WindDirectionDegrees,WindSpeedMPH,WindSpeedGustMPH,Humidity,HourlyPrecipIn,Conditions,Clouds,dailyrainin,SoftwareType,DateUTC
2013-04-17 00:02:00,47.0,44.0,30.02,North,-999,-999.0,-999.0,89,-99.99,,,-99.99,,2013-04-17 05:02:00,
2013-04-17 00:12:00,47.0,44.0,30.02,North,-999,-999.0,-999.0,89,-99.99,,,-99.99,,2013-04-17 05:12:00,
2013-04-17 00:22:00,47.0,44.0,30.02,North,-999,-999.0,-999.0,89,-99.99,,,-99.99,,2013-04-17 05:22:00,
2013-04-17 00:32:00,47.0,44.0,30.01,North,-999,-999.0,-999.0,89,-99.99,,,-99.99,,2013-04-17 05:32:00,
2013-04-17 00:42:00,47.0,44.0,30.01,North,-999,-999.0,-999.0,89,-99.99,,,-99.99,,2013-04-17 05:42:00,
2013-04-17 00:52:00,47.0,44.0,30.01,North,-999,-999.0,-999.0,89,-99.99,,,-99.99,,2013-04-17 05:52:00,
2013-04-17 01:02:00,47.0,44.0,30.00,North,-999,-999.0,-999.0,89,-99.99,,,-99.99,,2013-04-17 06:02:00,
2013-04-17 01:12:00,47.0,44.0,30.01,North,-999,-999.0,-999.0,89,-99.99,,,-99.99,,2013-04-17 06:12:00,
2013-04-17 01:22:00,47.0,44.0,30.01,North,-999,-999.0,-999.0,89,-99.99,,,-99.99,,2013-04-17 06:22:00,
2013-04-17 01:32:00,47.0,44.0,30.00,North,-999,-999.0,-999.0,89,-99.99,,,-99.99,,2013-04-17 06:32:00,
2013-04-17 01:42:00,47.0,45.0,30.00,North,-999,-999.0,-999.0,90,-99.99,,,-99.99,,2013-04-17 06:42:00,
2013-04-17 01:52:00,47.0,45.0,30.00,North,-999,-999.0,-999.0,90,-99.99,,,-99.99,,2013-04-17 06:52:00,
2013-04-17 02:02:00,48.0,45.0,30.01,North,-999,-999.0,-999.0,90,-99.99,,,-99.99,,2013-04-17 07:02:00,
2013-04-17 02:12:00,48.0,45.0,30.01,North,-999,-999.0,-999.0,90,-99.99,,,-99.99,,2013-04-17 07:12:00,
2013-04-17 02:22:00,48.0,45.0,30.01,North,-999,-999.0,-999.0,90,-99.99,,,-99.99,,2013-04-17 07:22:00,
2013-04-17 02:32:00,48.0,45.0,30.01,North,-999,-999.0,-999.0,90,-99.99,,,-99.99,,2013-04-17 07:32:00,
2013-04-17 02:42:00,48.0,45.0,30.00,North,-999,-999.0,-999.0,90,-99.99,,,-99.99,,2013-04-17 07:42:00,
2013-04-17 02:52:00,48.0,45.0,30.00,North,-999,-999.0,-999.0,90,-99.99,,,-99.99,,2013-04-17 07:52:00,
2013-04-17 03:02:00,48.0,45.0,30.00,North,-999,-999.0,-999.0,90,-99.99,,,-99.99,,2013-04-17 08:02:00,
2013-04-17 03:12:00,48.0,45.0,30.00,North,-999,-999.0,-999.0,90,-99.99,,,-99.99,,2013-04-17 08:12:00,
2013-04-17 03:22:00,48.0,45.0,30.00,North,-999,-999.0,-999.0,90,-99.99,,,-99.99,,2013-04-17 08:22:00,
2013-04-17 03:32:00,49.0,46.0,29.99,North,-999,-999.0,-999.0,90,-99.99,,,-99.99,,2013-04-17 08:32:00,
2013-04-17 03:42:00,49.0,46.0,29.99,North,-999,-999.0,-999.0,90,-99.99,,,-99.99,,2013-04-17 08:42:00,
2013-04-17 03:52:00,49.0,46.0,29.99,North,-999,-999.0,-999.0,90,-99.99,,,-99.99,,2013-04-17 08:52:00,
2013-04-17 04:02:00,49.0,46.0,29.99,North,-999,-999.0,-999.0,90,-99.99,,,-99.99,,2013-04-17 09:02:00,
2013-04-17 04:12:00,49.0,46.0,29.98,North,-999,-999.0,-999.0,90,-99.99,,,-99.99,,2013-04-17 09:12:00,
2013-04-17 04:22:00,49.0,46.0,29.98,North,-999,-999.0,-999.0,90,-99.99,,,-99.99,,2013-04-17 09:22:00,
2013-04-17 04:33:00,49.0,46.0,29.98,North,-999,-999.0,-999.0,90,-99.99,,,-99.99,,2013-04-17 09:33:00,
2013-04-17 04:42:00,49.0,46.0,29.98,North,-999,-999.0,-999.0,90,-99.99,,,-99.99,,2013-04-17 09:42:00,
2013-04-17 04:52:00,49.0,46.0,29.98,North,-999,-999.0,-999.0,90,-99.99,,,-99.99,,2013-04-17 09:52:00,
2013-04-17 05:02:00,49.0,46.0,29.99,North,-999,-999.0,-999.0,90,-99.99,,,-99.99,,2013-04-17 10:02:00,
2013-04-17 05:12:00,49.0,46.0,29.98,North,-999,-999.0,-999.0,90,-99.99,,,-99.99,,2013-04-17 10:12:00,
2013-04-17 05:23:00,49.0,46.0,29.98,North,-999,-999.0,-999.0,90,-99.99,,,-99.99,,2013-04-17 10:23:00,
2013-04-17 05:32:00,49.0,46.0,29.98,North,-999,-999.0,-999.0,90,-99.99,,,-99.99,,2013-04-17 10:32:00,
2013-04-17 05:42:00,49.0,46.0,29.97,North,-999,-999.0,-999.0,90,-99.99,,,-99.99,,2013-04-17 10:42:00,
2013-04-17 05:52:00,49.0,46.0,29.97,North,-999,-999.0,-999.0,90,-99.99,,,-99.99,,2013-04-17 10:52:00,
2013-04-17 06:02:00,49.0,46.0,29.97,North,-999,-999.0,-999.0,90,-99.99,,,-99.99,,2013-04-17 11:02:00,
2013-04-17 06:12:00,50.0,47.0,29.96,North,-999,-999.0,-999.0,90,-99.99,,,-99.99,,2013-04-17 11:12:00,
2013-04-17 06:22:00,50.0,47.0,29.96,North,-999,-999.0,-999.0,90,-99.99,,,-99.99,,2013-04-17 11:22:00,
2013-04-17 06:32:00,50.0,47.0,29.96,North,-999,-999.0,-999.0,90,-99.99,,,-99.99,,2013-04-17 11:32:00,
2013-04-17 06:42:00,50.0,47.0,29.95,North,-999,-999.0,-999.0,90,-99.99,,,-99.99,,2013-04-17 11:42:00,
2013-04-17 06:52:00,50.0,47.0,29.95,North,-999,-999.0,-999.0,90,-99.99,,,-99.99,,2013-04-17 11:52:00,
2013-04-17 07:02:00,51.0,48.0,29.94,North,-999,-999.0,-999.0,90,-99.99,,,-99.99,,2013-04-17 12:02:00,
2013-04-17 07:12:00,51.0,49.0,29.94,North,-999,-999.0,-999.0,91,-99.99,,,-99.99,,2013-04-17 12:12:00,
2013-04-17 07:22:00,51.0,49.0,29.94,North,-999,-999.0,-999.0,91,-99.99,,,-99.99,,2013-04-17 12:22:00,
2013-04-17 07:30:00,55.0,52.0,29.95,North,-999,-999.0,-999.0,91,-99.99,,,-99.99,,2013-04-17 12:30:00,
2013-04-17 07:32:00,52.0,50.0,29.94,North,-999,-999.0,-999.0,91,-99.99,,,-99.99,,2013-04-17 12:32:00,
2013-04-17 07:42:00,53.0,50.0,29.94,North,-999,-999.0,-999.0,91,-99.99,,,-99.99,,2013-04-17 12:42:00,
2013-04-17 07:52:00,53.0,50.0,29.94,North,-999,-999.0,-999.0,91,-99.99,,,-99.99,,2013-04-17 12:52:00,
2013-04-17 08:02:00,53.0,51.0,29.95,North,-999,-999.0,-999.0,91,-99.99,,,-99.99,,2013-04-17 13:02:00,
2013-04-17 08:12:00,55.0,52.0,29.95,North,-999,-999.0,-999.0,91,-99.99,,,-99.99,,2013-04-17 13:12:00,
2013-04-17 08:22:00,55.0,52.0,29.95,North,-999,-999.0,-999.0,91,-99.99,,,-99.99,,2013-04-17 13:22:00,
2013-04-17 09:02:00,63.0,61.0,29.94,North,-999,-999.0,-999.0,93,-99.99,,,-99.99,,2013-04-17 14:02:00,
2013-04-17 09:12:00,65.0,63.0,29.94,North,-999,-999.0,-999.0,93,-99.99,,,-99.99,,2013-04-17 14:12:00,
2013-04-17 09:22:00,65.0,63.0,29.94,North,-999,-999.0,-999.0,93,-99.99,,,-99.99,,2013-04-17 14:22:00,
2013-04-17 09:32:00,67.0,64.0,29.94,North,-999,-999.0,-999.0,92,-99.99,,,-99.99,,2013-04-17 14:32:00,
2013-04-17 09:42:00,67.0,63.0,29.94,North,-999,-999.0,-999.0,87,-99.99,,,-99.99,,2013-04-17 14:42:00,
2013-04-17 09:52:00,67.0,63.0,29.94,North,-999,-999.0,-999.0,87,-99.99,,,-99.99,,2013-04-17 14:52:00,
2013-04-17 10:02:00,69.0,63.0,29.93,North,-999,-999.0,-999.0,81,-99.99,,,-99.99,,2013-04-17 15:02:00,
2013-04-17 10:12:00,70.0,64.0,29.94,North,-999,-999.0,-999.0,80,-99.99,,,-99.99,,2013-04-17 15:12:00,
2013-04-17 10:22:00,70.0,64.0,29.94,North,-999,-999.0,-999.0,80,-99.99,,,-99.99,,2013-04-17 15:22:00,
2013-04-17 10:33:00,71.0,64.0,29.93,North,-999,-999.0,-999.0,78,-99.99,,,-99.99,,2013-04-17 15:33:00,
2013-04-17 10:42:00,72.0,64.0,29.93,North,-999,-999.0,-999.0,74,-99.99,,,-99.99,,2013-04-17 15:42:00,
2013-04-17 10:53:00,72.0,64.0,29.93,North,-999,-999.0,-999.0,74,-99.99,,,-99.99,,2013-04-17 15:53:00,
2013-04-17 11:03:00,74.0,65.0,29.92,North,-999,-999.0,-999.0,72,-99.99,,,-99.99,,2013-04-17 16:03:00,
2013-04-17 11:12:00,76.0,64.0,29.92,North,-999,-999.0,-999.0,68,-99.99,,,-99.99,,2013-04-17 16:12:00,
2013-04-17 11:22:00,76.0,64.0,29.92,North,-999,-999.0,-999.0,68,-99.99,,,-99.99,,2013-04-17 16:22:00,
2013-04-17 11:32:00,78.0,65.0,29.91,North,-999,-999.0,-999.0,65,-99.99,,,-99.99,,2013-04-17 16:32:00,
2013-04-17 11:42:00,78.0,65.0,29.91,North,-999,-999.0,-999.0,63,-99.99,,,-99.99,,2013-04-17 16:42:00,
2013-04-17 11:52:00,78.0,65.0,29.91,North,-999,-999.0,-999.0,63,-99.99,,,-99.99,,2013-04-17 16:52:00,
2013-04-17 12:02:00,78.0,64.0,29.91,North,-999,-999.0,-999.0,63,-99.99,,,-99.99,,2013-04-17 17:02:00,
2013-04-17 12:12:00,78.0,64.0,29.90,North,-999,-999.0,-999.0,62,-99.99,,,-99.99,,2013-04-17 17:12:00,
2013-04-17 12:22:00,78.0,64.0,29.90,North,-999,-999.0,-999.0,62,-99.99,,,-99.99,,2013-04-17 17:22:00,
2013-04-17 12:33:00,79.0,65.0,29.90,North,-999,-999.0,-999.0,61,-99.99,,,-99.99,,2013-04-17 17:33:00,
2013-04-17 12:42:00,80.0,64.0,29.90,North,-999,-999.0,-999.0,59,-99.99,,,-99.99,,2013-04-17 17:42:00,
2013-04-17 12:52:00,80.0,64.0,29.90,North,-999,-999.0,-999.0,59,-99.99,,,-99.99,,2013-04-17 17:52:00,
2013-04-17 13:02:00,80.0,64.0,29.88,North,-999,-999.0,-999.0,59,-99.99,,,-99.99,,2013-04-17 18:02:00,
2013-04-17 13:12:00,80.0,64.0,29.88,North,-999,-999.0,-999.0,60,-99.99,,,-99.99,,2013-04-17 18:12:00,
2013-04-17 13:22:00,80.0,64.0,29.88,North,-999,-999.0,-999.0,60,-99.99,,,-99.99,,2013-04-17 18:22:00,
2013-04-17 13:32:00,81.0,64.0,29.87,North,-999,-999.0,-999.0,56,-99.99,,,-99.99,,2013-04-17 18:32:00,
2013-04-17 13:42:00,82.0,64.0,29.86,North,-999,-999.0,-999.0,55,-99.99,,,-99.99,,2013-04-17 18:42:00,
2013-04-17 13:52:00,82.0,64.0,29.86,North,-999,-999.0,-999.0,55,-99.99,,,-99.99,,2013-04-17 18:52:00,
2013-04-17 14:02:00,82.0,64.0,29.84,North,-999,-999.0,-999.0,54,-99.99,,,-99.99,,2013-04-17 19:02:00,
2013-04-17 14:12:00,81.0,64.0,29.83,North,-999,-999.0,-999.0,56,-99.99,,,-99.99,,2013-04-17 19:12:00,
2013-04-17 14:22:00,81.0,64.0,29.83,North,-999,-999.0,-999.0,56,-99.99,,,-99.99,,2013-04-17 19:22:00,
2013-04-17 14:32:00,82.0,64.0,29.82,North,-999,-999.0,-999.0,54,-99.99,,,-99.99,,2013-04-17 19:32:00,
2013-04-17 14:42:00,83.0,64.0,29.82,North,-999,-999.0,-999.0,53,-99.99,,,-99.99,,2013-04-17 19:42:00,
2013-04-17 14:52:00,83.0,64.0,29.82,North,-999,-999.0,-999.0,53,-99.99,,,-99.99,,2013-04-17 19:52:00,
2013-04-17 15:02:00,83.0,64.0,29.81,North,-999,-999.0,-999.0,53,-99.99,,,-99.99,,2013-04-17 20:02:00,
2013-04-17 15:12:00,83.0,63.0,29.81,North,-999,-999.0,-999.0,52,-99.99,,,-99.99,,2013-04-17 20:12:00,
2013-04-17 15:22:00,83.0,63.0,29.81,North,-999,-999.0,-999.0,52,-99.99,,,-99.99,,2013-04-17 20:22:00,
2013-04-17 15:32:00,83.0,64.0,29.79,North,-999,-999.0,-999.0,52,-99.99,,,-99.99,,2013-04-17 20:32:00,
2013-04-17 15:42:00,82.0,63.0,29.79,North,-999,-999.0,-999.0,52,-99.99,,,-99.99,,2013-04-17 20:42:00,
2013-04-17 15:52:00,82.0,63.0,29.79,North,-999,-999.0,-999.0,52,-99.99,,,-99.99,,2013-04-17 20:52:00,
2013-04-17 16:02:00,82.0,63.0,29.78,North,-999,-999.0,-999.0,54,-99.99,,,-99.99,,2013-04-17 21:02:00,
2013-04-17 16:12:00,82.0,63.0,29.78,North,-999,-999.0,-999.0,54,-99.99,,,-99.99,,2013-04-17 21:12:00,
2013-04-17 16:22:00,82.0,63.0,29.78,North,-999,-999.0,-999.0,54,-99.99,,,-99.99,,2013-04-17 21:22:00,
2013-04-17 16:33:00,81.0,63.0,29.76,North,-999,-999.0,-999.0,55,-99.99,,,-99.99,,2013-04-17 21:33:00,
2013-04-17 16:42:00,81.0,63.0,29.76,North,-999,-999.0,-999.0,54,-99.99,,,-99.99,,2013-04-17 21:42:00,
2013-04-17 16:53:00,81.0,63.0,29.76,North,-999,-999.0,-999.0,54,-99.99,,,-99.99,,2013-04-17 21:53:00,
2013-04-17 17:02:00,83.0,63.0,29.75,North,-999,-999.0,-999.0,52,-99.99,,,-99.99,,2013-04-17 22:02:00,
2013-04-17 17:12:00,82.0,63.0,29.74,North,-999,-999.0,-999.0,52,-99.99,,,-99.99,,2013-04-17 22:12:00,
2013-04-17 17:22:00,82.0,63.0,29.74,North,-999,-999.0,-999.0,52,-99.99,,,-99.99,,2013-04-17 22:22:00,
2013-04-17 17:33:00,82.0,62.0,29.74,North,-999,-999.0,-999.0,52,-99.99,,,-99.99,,2013-04-17 22:33:00,
2013-04-17 17:42:00,82.0,62.0,29.73,North,-999,-999.0,-999.0,51,-99.99,,,-99.99,,2013-04-17 22:42:00,
2013-04-17 17:53:00,82.0,62.0,29.73,North,-999,-999.0,-999.0,51,-99.99,,,-99.99,,2013-04-17 22:53:00,
2013-04-17 18:02:00,82.0,61.0,29.73,North,-999,-999.0,-999.0,49,-99.99,,,-99.99,,2013-04-17 23:02:00,
2013-04-17 18:12:00,82.0,61.0,29.73,North,-999,-999.0,-999.0,50,-99.99,,,-99.99,,2013-04-17 23:12:00,
2013-04-17 18:22:00,82.0,61.0,29.73,North,-999,-999.0,-999.0,50,-99.99,,,-99.99,,2013-04-17 23:22:00,
2013-04-17 18:32:00,81.0,60.0,29.72,North,-999,-999.0,-999.0,50,-99.99,,,-99.99,,2013-04-17 23:32:00,
2013-04-17 18:42:00,80.0,60.0,29.72,North,-999,-999.0,-999.0,51,-99.99,,,-99.99,,2013-04-17 23:42:00,
2013-04-17 18:52:00,80.0,60.0,29.72,North,-999,-999.0,-999.0,51,-99.99,,,-99.99,,2013-04-17 23:52:00,
2013-04-17 19:02:00,80.0,60.0,29.71,North,-999,-999.0,-999.0,52,-99.99,,,-99.99,,2013-04-18 00:02:00,
2013-04-17 19:12:00,79.0,60.0,29.71,North,-999,-999.0,-999.0,52,-99.99,,,-99.99,,2013-04-18 00:12:00,
2013-04-17 19:22:00,79.0,60.0,29.71,North,-999,-999.0,-999.0,52,-99.99,,,-99.99,,2013-04-18 00:22:00,
2013-04-17 19:32:00,79.0,61.0,29.71,North,-999,-999.0,-999.0,53,-99.99,,,-99.99,,2013-04-18 00:32:00,
2013-04-17 19:42:00,79.0,60.0,29.71,North,-999,-999.0,-999.0,53,-99.99,,,-99.99,,2013-04-18 00:42:00,
2013-04-17 19:52:00,79.0,60.0,29.71,North,-999,-999.0,-999.0,53,-99.99,,,-99.99,,2013-04-18 00:52:00,
2013-04-17 20:02:00,78.0,60.0,29.70,North,-999,-999.0,-999.0,54,-99.99,,,-99.99,,2013-04-18 01:02:00,
2013-04-17 20:12:00,78.0,60.0,29.70,North,-999,-999.0,-999.0,55,-99.99,,,-99.99,,2013-04-18 01:12:00,
2013-04-17 20:22:00,78.0,60.0,29.70,North,-999,-999.0,-999.0,55,-99.99,,,-99.99,,2013-04-18 01:22:00,
2013-04-17 20:32:00,77.0,60.0,29.69,North,-999,-999.0,-999.0,56,-99.99,,,-99.99,,2013-04-18 01:32:00,
2013-04-17 20:42:00,77.0,61.0,29.69,North,-999,-999.0,-999.0,57,-99.99,,,-99.99,,2013-04-18 01:42:00,
2013-04-17 20:50:00,76.0,60.0,29.68,North,-999,-999.0,-999.0,59,-99.99,,,-99.99,,2013-04-18 01:50:00,
2013-04-17 20:52:00,77.0,61.0,29.69,North,-999,-999.0,-999.0,57,-99.99,,,-99.99,,2013-04-18 01:52:00,
2013-04-17 21:02:00,77.0,60.0,29.68,North,-999,-999.0,-999.0,57,-99.99,,,-99.99,,2013-04-18 02:02:00,
2013-04-17 21:12:00,76.0,61.0,29.68,North,-999,-999.0,-999.0,58,-99.99,,,-99.99,,2013-04-18 02:12:00,
2013-04-17 21:22:00,76.0,61.0,29.68,North,-999,-999.0,-999.0,58,-99.99,,,-99.99,,2013-04-18 02:22:00,
2013-04-17 21:32:00,76.0,60.0,29.68,North,-999,-999.0,-999.0,59,-99.99,,,-99.99,,2013-04-18 02:32:00,
2013-04-17 21:42:00,76.0,60.0,29.68,North,-999,-999.0,-999.0,59,-99.99,,,-99.99,,2013-04-18 02:42:00,
2013-04-17 22:02:00,76.0,61.0,29.68,North,-999,-999.0,-999.0,60,-99.99,,,-99.99,,2013-04-18 03:02:00,
2013-04-17 22:12:00,75.0,61.0,29.69,North,-999,-999.0,-999.0,61,-99.99,,,-99.99,,2013-04-18 03:12:00,
2013-04-17 22:22:00,75.0,61.0,29.69,North,-999,-999.0,-999.0,61,-99.99,,,-99.99,,2013-04-18 03:22:00,
2013-04-17 22:33:00,75.0,61.0,29.67,North,-999,-999.0,-999.0,62,-99.99,,,-99.99,,2013-04-18 03:33:00,
2013-04-17 22:43:00,75.0,61.0,29.68,North,-999,-999.0,-999.0,62,-99.99,,,-99.99,,2013-04-18 03:43:00,
2013-04-17 22:53:00,75.0,61.0,29.68,North,-999,-999.0,-999.0,62,-99.99,,,-99.99,,2013-04-18 03:53:00,
2013-04-17 23:03:00,75.0,61.0,29.68,North,-999,-999.0,-999.0,63,-99.99,,,-99.99,,2013-04-18 04:03:00,
2013-04-17 23:13:00,74.0,61.0,29.67,North,-999,-999.0,-999.0,64,-99.99,,,-99.99,,2013-04-18 04:13:00,
2013-04-17 23:23:00,74.0,61.0,29.67,North,-999,-999.0,-999.0,64,-99.99,,,-99.99,,2013-04-18 04:23:00,
2013-04-17 23:33:00,74.0,62.0,29.66,North,-999,-999.0,-999.0,66,-99.99,,,-99.99,,2013-04-18 04:33:00,
2013-04-17 23:43:00,74.0,62.0,29.67,North,-999,-999.0,-999.0,66,-99.99,,,-99.99,,2013-04-18 04:43:00,
2013-04-17 23:53:00,74.0,62.0,29.67,North,-999,-999.0,-999.0,66,-99.99,,,-99.99,,2013-04-18 04:53:00,